Showing default

EAGLEEYE, 60508

Orbit data source: Space-Track

EAGLEEYE, 60508 is a Polish payload satellite in SSO that was launched on Fri, 16 Aug 2024 UTC via an FALCON 9 launch vehicle from the Air Force Western Test Range (AFWTR). Payloads include a variety of satellites, spacecraft, and rockets equipped with specific instruments for various scientific and technological missions. These include communications satellites like Starlink; space stations such as the ISS; scientific satellites like the Hubble; Earth observation satellites from companies like Planet Labs, Umbra, and HawkEye 360; GPS; miniature CubeSats for education and research; and military/defense satellites.

Loading next visibility...
EAGLEEYE details
Identifier
60508, 2024-149AS
Orbit
SSO
Last TLE update12 hours ago
Origin
Flag of PLCREO (PL / POL)
ManufacturerCREO
MissionOperational spacecraft
Bus & MotorHYPERSAT, Unknown motor
Mass55 kg wet, 55 kg dry
Launch date (UTC)
2024-08-16 (4 months ago)
Launch vehicle
FALCON 9
Launch site
Air Force Western Test Range (AFWTR)
Object type
Payload
Rocket body
Debris
Shape & HBRUnknown
Radar Cross SectionMedium (>0.1 m² and <1 m²)

Expand to show TLE details & history

TLE from 12 hours ago
0 EAGLEEYE
1 60508U 24149AS  24356.76949208  .00024116  00000-0  96389-3 0  9996
2 60508  97.4267  70.7573 0005449  61.3734 298.8051 15.25097951 19301
Epoch: 2024-12-21T18:28Z
Definitive object data (Epoch: 2024-12-21T18:28:04.115Z)
Latitude-0.00007°
Longitude62.92427°
Altitude491.786 km
Speed7.62 km/s
True Right ascension04h 43m 01s
True Declination0° 00' 00"
Sunlit
Object was in full shadow at TLE epoch
Visualization TLE readout
Latitude-61.40944°
Longitude-130.33665°
Altitude517.815 km
Speed7.601 km/s
Apparent Right ascension16h 54m 28s
Apparent Declination-51° 39' 42"
Sunlit
Object is in daylight
Visualization observer readout
Local Sidereal Time05:37:41
Azimuth151.093° SSE
Elevation-76.078°
Doppler factor1
Orbital elements
Apogee altitude491.192 km
Perigee altitude483.71 km
Semi-major axis6,865.588 km
Eccentricity0.0005449
Inclination97.4267°
RAAN70.7573°
Arg. of periapsis61.3734°
True anomaly298.75037°
Mean anomaly298.8051°
Eccentric anomaly298.77774°
Mean motion3.81528 °/min
BSTAR0.00096389
Orbital period94.36 mins
Loading maneuver chart data...
Loading historical data...
Loading historical data...
Loading historical data...
Loading historical data...
Loading historical data...
Loading historical data...
Loading historical data...

EAGLEEYE Visibility forecast

Observer location: undefined°, undefined

Span
Click to sort rows by Start time (UTC) header in descending order
Start Az.
Max El. time (UTC)
Max El. Az.
Max El.
End time (UTC)
End Az.
4 mins2024-12-22 17:05:55.135Z59.981° ENE2024-12-22 17:07:55.135Z96.304° ESE15.027°2024-12-22 17:09:55.135Z130.831° SE
4 mins2024-12-22 18:39:55.135Z327.914° NNW2024-12-22 18:40:55.135Z302.729° NW24.984°2024-12-22 18:43:55.135Z232.858° WSW
5 mins2024-12-23 05:14:55.135Z169.767° S2024-12-23 05:16:55.135Z192.003° SSW44.4°2024-12-23 05:19:55.135Z346.448° N
|